HRC MONOBLOCK CAMERA

Last updated on Wed Aug 19 2026 00:02:04 GMT+0000 (Coordinated Universal Time)

1 66052U 98067XR 26230.47038969 .00144471 00000+0 58788-3 0 9997 2 66052 51.6190 316.7646 0005876 357.3389 2.7582 15.85220525 47842
UTC large
Height (km)
Speed (km/s)
/
Latitude / Longitude
Inclination (degrees)
Orbital Period (minutes)
Azimuth
Elevation
Range (km)
Doppler Factor

Next 0 passes for location: London (51.5072 / 0.1276)

No passes found over London.
HRC MONOBLOCK CAMERA